Wind_Speed
1 3 4 5 5 4 4 5 6 6 5 5 5 2 2 4 5 2 2 8 8 3 5 7 7 7 7 7 7 7 7 6 5 5 6 6 5 5 5 5 4 4 4 3 5 8 9 11 14 15 15 14 12 10 9 10 13 14 12 12 12 10 10 15 21 21 17 16 17 17 19 17 15 18 20 19 17 16 17 19 20 20 19 17 18 20 20
4 5 6 7 8 6 6 8 7 6 5 6 5 3 3 7 7 5 7 12 8 4 5 6 6 5 6 7 9 11 11 10 8 8 6 5 6 6 6 6 5 5 4 3 3 7 9 10 12 14 15 15 13 11 9 8 9 9 8 8 10 12 11 11 17 19 16 16 16 14 15 17 21 24 25 25 23 19 18 18 17 20 22 20 19 20 19
4 4 6 8 7 6 6 8 9 8 8 8 7 5 5 7 6 4 8 11 7 6 6 6 7 7 10 12 12 11 11 10 10 10 8 7 6 5 5 6 7 7 6 6 6 6 7 7 9 12 13 14 14 13 12 12 11 9 8 9 12 15 15 12 12 13 13 12 11 14 20 24 25 24 24 23 20 16 15 16 15 16 18 18 17 15 13
3 3 5 6 6 7 8 8 10 9 7 7 6 5 6 4 4 4 8 8 4 6 6 6 9 11 14 15 12 10 9 10 10 10 10 10 8 7 7 8 8 8 7 8 9 9 7 5 7 10 11 11 12 12 12 12 12 11 11 11 11 10 9 8 8 10 13 15 15 18 22 23 20 19 18 16 13 9 10 11 11 11 11 11 10 10 10
3 3 4 6 6 6 4 5 6 4 4 9 8 8 10 6 4 4 5 4 0 5 4 6 10 12 13 12 10 10 9 9 10 11 11 11 10 9 10 10 10 9 9 10 13 14 12 8 6 7 8 9 9 8 8 8 8 10 11 10 10 10 10 11 12 13 14 17 18 18 18 16 14 14 13 11 9 7 7 7 8 8 9 8 8 8 8
3 4 3 6 4 1 3 5 3 2 9 14 12 8 9 9 6 5 4 2 1 4 5 6 8 9 10 9 9 10 9 9 10 11 11 10 10 10 10 10 10 11 13 15 17 19 20 17 10 5 5 5 5 4 3 3 3 4 5 6 8 11 14 15 15 16 19 20 19 17 16 15 14 13 11 9 8 6 5 5 5 5 4 4 4 5 5
3 2 5 4 2 4 5 2 3 8 13 16 14 10 9 9 7 6 6 4 5 5 5 4 4 6 8 10 11 11 11 9 9 11 10 9 9 8 9 9 10 14 18 19 20 22 24 23 21 17 13 10 7 7 5 3 2 2 2 2 5 8 11 11 13 17 19 19 17 16 14 13 11 10 8 7 6 5 4 5 4 3 3 1 1 3 5
2 1 4 3 5 3 3 1 2 5 7 8 10 10 9 8 6 5 5 5 6 6 6 5 2 2 5 9 11 10 10 9 9 9 9 9 8 5 6 9 11 14 17 18 20 22 22 23 24 23 24 22 18 14 9 5 4 4 5 6 4 6 8 7 10 14 16 15 13 12 10 8 7 6 5 4 4 4 3 3 2 2 2 2 2 3 4
3 4 3 2 3 1 2 3 2 1 2 1 4 6 3 5 5 4 4 5 7 7 6 7 5 2 1 7 8 7 8 9 8 8 9 10 10 9 10 14 15 15 14 15 19 19 19 21 21 21 23 25 24 21 16 11 9 8 4 5 7 8 7 7 8 11 12 11 10 8 6 6 6 5 5 4 3 3 3 3 3 4 4 5 6 5 6
3 5 3 2 3 4 3 4 5 3 1 3 5 7 3 5 5 3 5 6 6 7 7 8 7 4 4 6 6 6 7 7 7 9 10 12 14 14 15 18 20 19 16 15 16 16 16 18 18 19 21 22 23 23 20 16 12 11 10 7 3 4 5 6 9 12 12 10 9 8 7 7 8 6 5 4 3 3 4 3 3 4 6 6 7 8 8
3 5 4 3 3 4 5 5 7 8 4 1 6 6 3 4 6 4 5 7 6 7 7 7 8 7 5 4 4 5 6 6 6 7 9 12 15 15 17 18 19 20 18 14 12 13 13 12 14 18 20 21 22 23 22 19 16 13 11 10 7 5 4 2 4 11 13 11 10 10 10 10 9 7 6 6 5 5 4 4 5 6 7 7 8 9 9
3 4 3 1 2 2 3 5 7 8 5 4 7 4 1 3 5 6 5 7 6 6 6 6 6 6 3 4 5 6 6 6 9 10 10 13 15 16 18 20 20 21 20 16 12 10 5 3 7 11 12 15 19 21 21 20 19 18 16 12 9 7 7 6 3 3 6 8 10 10 10 10 10 8 8 8 8 7 6 6 6 7 8 7 8 10 10
2 3 3 1 1 1 3 5 7 7 4 6 5 3 4 1 3 4 6 6 5 5 5 5 3 1 2 4 5 6 7 7 9 11 12 15 17 18 19 21 22 22 21 20 18 15 10 6 5 4 5 10 14 16 18 19 19 21 20 17 15 14 12 8 4 2 1 1 3 4 4 5 7 9 10 11 10 9 9 8 7 7 7 6 8 11 11
3 2 3 2 1 2 4 4 6 6 4 4 2 2 2 1 3 4 5 4 4 4 4 3 1 3 4 4 3 5 7 7 8 11 13 14 15 18 19 20 21 22 21 20 20 20 19 17 14 9 9 12 13 13 16 19 19 19 19 19 18 16 11 7 6 5 4 3 2 1 1 1 3 5 7 11 11 11 10 9 7 6 5 6 8 11 11
2 3 3 2 2 3 4 3 5 7 4 2 1 2 2 2 3 4 4 3 3 3 3 2 3 4 5 6 6 6 6 7 9 13 16 16 16 17 18 18 18 19 19 19 19 20 21 22 21 19 16 16 16 16 17 18 19 19 20 21 21 18 13 10 10 9 8 7 6 4 3 3 4 5 6 6 8 10 11 10 8 6 6 7 10 12 12
2 3 2 2 2 4 5 4 3 3 2 2 1 2 2 2 2 2 3 3 2 2 2 3 4 5 5 6 6 7 7 7 8 11 15 17 18 19 20 20 20 18 17 18 19 21 22 21 21 20 19 18 17 19 21 22 22 22 21 20 19 19 18 16 14 12 11 10 10 9 9 8 7 7 8 8 9 10 12 13 12 10 9 10 12 13 12
3 3 2 2 3 3 5 6 5 3 3 2 3 5 3 2 2 1 3 3 4 3 2 3 4 4 5 6 6 6 7 6 8 10 13 14 16 17 18 20 21 20 19 19 20 21 22 21 20 20 19 17 17 17 18 19 22 24 24 21 20 19 19 16 15 14 13 12 12 12 12 10 9 9 9 9 9 9 11 13 14 13 13 13 14 14 13
5 4 4 3 4 4 4 4 4 4 3 1 3 5 3 3 3 3 3 3 4 4 3 4 4 4 6 6 6 6 6 6 8 11 13 14 15 16 16 17 19 20 22 23 23 23 23 22 20 19 19 18 17 16 15 14 14 16 18 21 23 24 24 23 22 20 17 14 13 12 12 11 11 11 10 10 9 9 10 12 14 16 16 17 17 16 15
4 3 2 2 2 4 4 4 3 3 3 2 2 4 2 1 1 2 2 2 3 4 4 5 5 5 6 6 6 6 5 6 8 11 13 15 16 16 17 18 19 20 21 21 22 22 23 24 21 19 19 19 19 19 19 18 16 14 12 12 14 16 17 19 20 20 19 17 16 15 14 14 14 13 12 12 11 11 11 12 15 17 18 18 18 17 16
3 3 3 4 2 3 3 4 3 2 3 2 1 1 2 1 2 1 1 2 2 2 3 4 4 5 6 6 6 6 5 6 9 11 14 16 18 19 19 19 19 18 18 19 21 22 23 24 23 22 21 21 20 21 21 21 20 19 16 13 12 12 11 10 11 13 13 13 15 17 18 16 15 15 14 13 13 13 13 14 17 19 19 19 18 17 17
3 1 3 4 1 2 1 3 2 0 2 2 1 2 2 3 2 1 1 2 3 3 4 4 4 4 5 5 6 6 6 7 9 13 16 18 19 20 21 21 20 19 19 20 21 23 25 26 25 24 24 23 22 21 21 20 18 18 18 17 16 15 13 11 10 10 10 10 12 16 18 17 15 14 13 13 14 14 13 14 16 18 19 19 19 19 19
1 2 3 1 1 2 3 3 3 3 0 3 3 3 3 3 2 1 2 4 5 5 5 6 5 4 5 7 8 7 7 9 12 15 17 19 20 22 22 23 23 22 22 22 23 25 27 28 27 26 26 25 22 20 19 19 17 16 17 18 18 18 17 15 12 10 10 11 13 14 16 16 14 13 11 12 13 13 13 14 16 17 17 16 17 18 19
4 5 5 4 3 2 5 5 5 4 1 5 4 2 2 3 2 2 3 4 4 5 7 9 8 5 6 9 10 9 10 14 17 18 19 20 21 22 23 23 24 25 25 25 25 26 27 27 26 26 26 25 23 22 21 20 19 18 17 17 18 19 20 19 17 15 13 13 14 15 15 15 15 14 12 11 12 13 15 15 16 16 16 15 15 17 18
3 3 4 4 3 2 4 4 4 3 2 4 3 2 2 3 3 4 4 5 4 4 4 6 7 8 9 12 13 12 14 18 20 20 22 23 23 24 24 24 24 25 25 24 24 24 23 23 24 25 25 25 25 25 24 23 22 22 21 20 19 19 19 19 18 17 15 14 14 15 15 16 17 16 15 14 11 10 11 13 13 13 13 13 13 15 16
2 1 2 2 3 2 3 3 2 3 3 3 1 2 2 4 5 5 6 5 4 3 3 5 8 10 12 14 15 16 17 19 21 21 23 23 24 24 24 24 24 24 24 23 23 23 23 23 24 25 27 28 28 27 26 26 24 23 23 24 23 23 22 20 19 17 16 15 15 15 17 18 19 19 18 17 14 12 10 10 11 11 10 10 12 14 15
4 3 2 2 2 1 3 4 3 3 3 3 2 2 4 6 6 5 5 3 3 3 4 6 8 11 14 15 16 18 19 20 21 22 21 22 22 22 22 23 25 25 26 26 25 25 25 25 25 26 28 30 30 29 30 29 27 26 26 26 26 26 25 25 23 22 20 19 18 19 20 21 22 22 21 20 19 17 15 14 12 11 12 13 14 15 16
3 3 4 4 4 4 3 3 3 4 5 3 3 4 5 6 5 3 2 3 5 7 8 8 10 13 15 15 16 17 19 19 19 20 20 20 21 22 22 23 25 25 25 25 25 25 25 26 26 28 30 31 32 32 32 32 31 30 29 28 28 28 27 26 26 25 24 23 22 22 24 25 26 26 24 22 21 20 20 19 18 17 17 17 17 18 19
2 1 1 1 3 4 4 4 3 3 3 2 4 4 4 5 5 4 3 3 6 9 10 12 13 14 14 15 16 17 17 17 17 18 19 19 20 21 21 21 22 22 22 22 22 23 24 25 26 27 30 32 33 32 32 32 31 31 31 30 29 29 29 28 28 27 26 23 21 22 25 27 28 27 25 23 22 22 22 23 23 23 23 22 22 21 21
1 2 1 2 5 5 2 1 0 1 2 2 2 1 2 3 4 4 3 4 6 8 9 12 14 15 14 16 17 16 15 15 17 18 18 19 20 20 19 18 18 17 17 17 19 20 21 23 24 26 29 31 30 29 29 29 30 31 31 30 29 28 28 28 28 29 29 26 21 21 25 28 27 25 24 24 24 24 25 26 27 28 27 27 26 24 22
2 1 1 2 2 3 3 1 2 2 1 2 2 1 2 2 2 2 3 4 5 6 9 12 14 15 15 17 17 16 16 17 18 19 19 19 18 17 16 15 13 10 10 12 15 17 19 22 23 25 25 25 23 23 23 24 27 29 29 30 30 29 28 27 27 28 29 28 24 22 25 27 26 26 26 26 26 27 28 29 30 30 29 28 27 26 24
1 2 1 1 1 4 3 2 2 4 2 1 2 2 3 2 1 1 3 4 5 6 9 12 13 13 16 18 18 17 18 19 18 17 17 16 15 15 16 15 13 10 11 13 14 16 17 19 20 20 20 18 16 16 16 19 22 26 28 29 29 29 29 28 26 26 26 26 25 25 26 27 27 27 29 29 28 28 29 29 28 28 28 27 26 25 23
2 4 3 2 0 3 2 2 3 4 2 1 1 2 4 3 3 4 4 4 6 7 8 10 12 14 17 19 18 17 18 18 16 15 15 16 16 17 16 15 12 11 12 14 15 16 18 19 20 19 18 16 13 11 11 14 18 22 26 28 27 27 28 28 28 26 24 24 27 28 28 29 29 29 29 30 29 29 29 29 27 27 27 26 25 23 22
2 1 2 2 1 2 3 3 3 4 3 3 3 6 7 6 6 7 6 6 7 7 7 9 12 16 19 19 17 17 17 16 14 15 17 19 19 18 16 14 11 10 11 14 17 19 21 22 23 21 19 17 16 13 8 6 9 13 18 21 22 23 25 27 27 26 24 24 28 30 30 31 31 31 30 30 30 30 29 29 28 26 25 24 23 22 21
5 5 5 5 4 4 5 4 4 4 4 5 6 8 8 8 9 9 8 7 8 7 7 9 13 17 18 17 16 17 17 13 11 14 18 20 19 17 16 14 12 11 14 18 23 25 25 25 25 23 21 21 21 20 16 10 5 5 9 13 17 19 21 24 24 24 23 23 24 27 29 30 30 31 30 30 30 30 29 28 27 25 23 22 21 20 19
8 7 6 7 7 6 7 6 5 5 5 5 6 7 8 8 9 10 8 8 8 7 8 9 12 15 16 15 15 17 16 14 14 16 18 19 18 16 15 15 16 17 20 24 26 27 26 25 25 25 25 25 26 26 25 23 20 17 17 17 18 18 21 22 22 23 24 24 23 25 27 27 27 29 30 30 29 28 27 26 25 24 23 21 19 18 17
8 6 5 7 7 6 5 5 4 5 6 6 7 7 7 5 4 6 7 7 7 7 8 8 11 13 14 12 13 15 16 16 18 19 18 18 17 15 14 17 21 22 22 24 26 26 25 25 25 26 27 29 30 29 28 29 29 28 27 27 26 25 24 24 24 24 26 26 25 25 26 27 27 28 28 28 27 25 24 23 22 21 20 19 18 17 15
7 7 7 7 6 4 3 4 4 6 8 8 6 4 2 2 3 2 3 5 6 7 8 9 11 11 10 9 11 15 18 18 19 19 17 16 15 15 17 21 23 22 20 20 23 24 24 24 24 25 27 30 32 32 31 30 31 31 31 31 30 29 28 27 27 27 26 26 27 26 26 27 27 27 26 26 25 23 22 20 18 17 17 17 17 16 15
6 7 8 8 6 5 6 7 7 6 7 6 2 2 2 4 5 6 7 7 6 6 8 9 10 10 9 8 11 16 20 20 19 19 17 15 15 16 19 21 22 20 18 18 20 22 23 23 24 26 26 27 28 30 31 32 33 34 33 31 30 29 28 27 26 25 24 24 25 25 25 25 25 25 25 24 22 20 18 16 16 17 18 18 18 18 18
6 7 9 9 7 7 8 8 7 6 6 5 1 3 3 4 5 6 7 7 7 6 7 8 10 10 10 9 9 13 18 20 19 18 17 15 14 16 19 22 23 21 19 19 20 22 22 23 24 25 25 25 25 26 27 28 30 31 31 30 29 29 27 26 25 25 25 24 24 23 22 21 21 21 21 20 18 17 17 17 18 19 19 20 20 20 20
7 8 10 10 9 10 10 9 8 8 8 6 3 3 2 3 5 7 7 7 7 7 7 8 9 10 10 9 9 10 14 18 18 17 16 16 16 17 21 24 26 25 22 21 22 22 22 23 25 24 24 24 24 25 25 26 26 27 27 28 28 27 26 25 24 24 23 22 20 19 18 17 17 17 18 18 18 19 19 19 20 20 20 20 20 20 19
10 11 12 11 11 12 11 10 10 10 9 6 4 4 2 3 5 7 8 7 8 8 8 8 9 10 10 11 11 10 11 14 17 18 17 18 18 17 17 20 24 25 24 23 23 22 22 23 24 25 24 23 23 23 24 25 25 26 25 25 25 26 25 24 23 23 22 21 20 20 20 20 19 19 20 20 20 20 20 20 20 20 20 20 20 20 18
12 13 13 12 13 14 12 10 10 10 9 6 7 5 2 3 6 7 8 8 8 9 9 9 10 10 11 12 13 11 10 10 13 17 19 20 20 18 15 17 22 24 23 23 24 23 22 22 23 23 23 23 23 23 23 24 24 24 24 23 23 24 24 24 23 23 22 22 22 22 22 23 23 23 23 23 22 22 21 21 20 20 19 19 19 18 17
14 15 14 13 14 15 13 11 9 9 8 8 7 5 4 4 6 7 9 9 8 8 10 10 10 11 12 13 13 12 11 10 10 13 17 20 22 21 18 19 21 22 21 22 23 24 23 23 22 21 20 21 22 22 24 24 24 24 24 23 23 23 23 23 23 23 22 22 23 23 23 24 24 24 24 23 23 22 21 21 20 19 18 18 17 17 16
15 15 14 15 15 14 14 12 10 8 9 10 9 7 6 6 6 6 7 8 8 8 9 10 10 11 12 13 12 12 12 11 11 12 13 16 18 20 20 20 20 20 20 20 22 22 22 22 21 20 19 20 20 21 23 24 24 24 24 24 24 24 24 24 24 24 23 24 24 24 23 23 23 23 23 23 22 21 20 19 18 18 17 16 15 14 13
16 15 15 16 16 15 15 14 12 10 11 13 11 9 9 8 6 5 5 6 7 7 8 10 11 11 12 12 12 12 12 12 13 13 13 12 11 13 16 18 18 18 19 19 20 21 21 20 19 19 20 20 21 22 23 24 24 24 25 25 24 24 24 24 24 24 24 24 23 23 22 22 22 21 21 20 19 18 18 17 15 14 13 12 11 10 9
17 17 16 16 17 16 17 16 15 13 12 13 12 11 11 10 8 6 5 5 6 7 7 8 10 10 11 12 12 12 12 13 14 15 15 13 11 11 13 16 17 17 18 19 20 20 19 18 17 19 20 21 22 24 25 25 25 25 25 25 25 24 24 24 23 23 22 22 21 20 20 19 19 18 18 17 16 15 14 13 11 10 9 8 7 6 5
17 17 16 17 17 17 17 16 15 12 9 11 12 12 13 13 10 8 7 6 6 7 8 8 9 9 9 9 9 10 13 15 15 13 13 14 15 14 14 15 16 17 18 18 19 19 18 17 17 17 18 20 22 24 24 25 25 25 25 25 24 23 23 23 22 22 21 20 19 18 18 17 17 16 15 15 15 14 13 12 12 11 9 8 7 6 5
14 16 17 18 18 17 16 16 14 11 10 14 16 16 17 16 13 10 10 9 8 8 8 8 8 9 9 8 8 8 11 13 13 11 11 12 14 15 15 14 14 15 17 18 18 18 17 17 17 16 17 18 20 22 23 23 24 24 25 25 24 23 23 22 21 21 21 20 19 18 17 16 16 16 15 15 14 14 13 13 12 12 12 11 10 8 7
13 16 17 18 18 16 14 13 12 12 13 16 17 18 18 18 16 14 14 13 11 10 10 9 8 8 9 9 8 8 9 10 11 11 11 10 11 12 13 14 13 14 15 17 18 17 16 16 16 16 17 18 19 20 21 22 22 22 23 23 23 23 22 21 20 20 20 20 19 18 17 17 16 15 15 14 13 12 12 12 11 11 11 11 11 10 9
13 15 17 18 18 17 14 13 13 14 16 16 16 17 19 20 18 16 17 18 16 13 12 10 9 8 8 7 7 8 8 9 11 11 11 10 9 10 11 12 13 13 14 15 16 16 15 15 15 16 16 17 18 18 19 19 20 20 21 21 21 21 20 20 20 20 20 19 18 18 18 17 16 15 14 13 12 11 11 11 10 10 9 10 10 10 10
11 13 15 17 18 17 16 15 13 14 16 18 17 18 21 23 21 18 19 21 20 17 15 13 11 10 8 7 7 7 7 8 9 9 9 9 10 10 10 10 12 13 14 14 14 14 14 14 14 15 15 16 17 17 16 16 16 17 19 19 19 18 17 17 18 19 18 17 16 15 15 15 15 15 14 13 13 12 12 11 11 10 10 10 10 10 9
11 11 13 15 16 16 17 17 16 15 17 19 19 19 23 25 22 18 19 22 23 22 20 18 16 14 12 9 8 7 7 7 8 8 8 8 9 9 9 10 11 13 14 14 14 14 14 14 14 14 14 15 16 16 16 16 16 16 17 17 17 17 16 17 17 17 16 15 15 15 14 14 14 13 13 12 12 13 12 11 11 10 10 10 10 10 10
Wind_Direction
114 96 66 46 53 51 34 32 12 359 29 73 87 111 194 141 117 160 134 85 80 360 356 29 24 24 41 34 21 28 39 45 43 42 52 55 54 76 101 105 101 105 117 126 120 113 106 104 105 101 96 93 92 96 108 123 131 133 132 128 122 111 102 107 109 107 116 138 145 139 138 145 168 182 182 189 202 202 196 195 194 195 201 206 207 209 213
27 40 55 52 50 47 39 34 24 18 47 80 80 48 64 91 105 147 113 83 64 360 343 1 1 11 41 42 31 31 32 31 36 40 33 17 23 54 76 76 70 62 45 36 86 108 107 105 107 105 99 94 89 91 106 128 141 154 177 183 167 171 183 159 131 127 131 136 139 149 168 184 198 204 200 198 202 200 192 195 205 208 209 215 218 219 223
348 352 50 57 60 76 65 28 11 18 38 48 46 23 25 66 81 93 87 76 48 352 347 10 22 34 45 41 31 28 26 23 31 34 21 10 16 37 53 64 74 71 59 43 39 63 87 99 104 106 104 100 93 92 104 116 123 133 152 158 151 156 169 170 160 167 181 181 174 187 198 196 193 194 195 196 198 200 201 210 220 217 214 219 223 226 237
285 309 56 61 59 71 62 28 2 3 37 61 55 24 17 66 121 91 65 68 31 324 340 30 45 48 51 46 31 24 22 19 28 30 20 16 21 31 34 36 45 52 59 62 52 46 53 74 97 102 105 105 98 95 102 109 114 122 127 133 139 145 153 158 163 180 198 204 197 192 191 188 183 182 187 194 199 201 204 208 210 213 221 231 237 248 263
271 282 85 77 55 46 26 349 336 337 75 88 71 34 19 28 98 98 77 95 244 309 346 45 54 53 55 52 39 31 23 19 27 31 27 25 28 38 42 36 33 33 35 44 49 45 41 45 80 102 102 96 86 85 96 100 108 119 120 121 131 140 146 148 147 155 170 176 172 168 168 168 168 170 178 188 192 191 196 204 217 231 243 253 259 267 273
254 276 68 68 50 59 256 289 334 89 102 88 77 53 23 22 44 79 100 117 359 1 27 52 65 68 66 60 53 45 35 27 27 29 31 31 29 33 40 39 34 29 24 25 31 33 31 31 39 65 90 86 59 36 57 91 89 103 119 119 122 136 147 149 150 158 163 160 154 151 150 150 152 155 158 159 159 164 170 177 194 210 221 234 238 236 243
199 289 65 72 256 204 190 219 61 100 107 98 89 70 37 29 39 55 59 31 3 26 43 40 75 97 85 68 56 46 39 34 32 28 25 26 28 28 31 33 31 26 20 12 14 22 23 22 24 23 22 23 15 0 345 297 294 307 230 169 128 138 146 142 142 152 154 151 149 150 149 148 148 146 146 147 146 146 142 140 149 158 153 153 187 201 211
155 112 101 166 226 195 143 105 63 88 91 88 81 59 26 11 19 38 40 15 356 11 27 18 17 153 108 67 52 42 36 32 33 33 22 19 23 20 27 36 37 34 22 4 3 13 15 15 14 11 9 8 5 7 7 340 315 302 255 237 196 154 145 136 140 149 151 147 144 147 150 150 147 144 148 154 157 168 177 178 192 214 222 252 273 250 226
149 152 164 177 190 170 23 344 320 90 78 99 111 95 40 349 3 35 39 16 359 1 9 7 350 273 112 55 38 27 30 27 28 30 25 23 22 14 20 27 24 26 22 7 5 8 8 10 6 355 357 1 357 359 6 9 14 18 339 269 237 206 185 172 164 161 161 157 150 149 152 153 154 157 161 164 170 191 209 218 232 253 263 258 255 257 248
111 123 153 167 179 206 245 284 283 277 191 178 143 118 82 336 333 15 49 29 3 1 5 0 1 17 55 38 8 356 10 17 23 23 19 20 20 16 17 14 7 6 9 8 8 2 358 5 358 342 347 356 352 348 350 353 1 9 10 3 326 234 210 204 199 190 185 179 170 168 170 168 168 172 178 190 207 220 230 249 269 285 291 275 257 253 251
114 125 159 182 183 208 233 267 294 305 302 130 107 103 77 340 319 332 39 43 17 15 18 10 24 47 44 2 328 329 341 356 16 17 8 9 9 7 6 2 356 356 359 4 6 357 353 0 354 343 346 348 341 336 336 336 336 335 342 360 13 22 27 7 215 197 193 194 191 185 182 180 180 187 202 215 222 227 238 262 286 305 315 300 266 248 244
151 131 143 161 149 190 255 278 289 295 310 51 89 124 235 338 342 344 37 55 34 26 30 25 42 59 30 317 303 311 323 348 7 9 4 2 359 357 357 355 352 350 350 351 350 342 331 339 344 344 342 331 319 316 318 320 318 316 318 326 336 343 353 1 6 175 182 191 196 193 189 189 194 205 218 225 227 230 240 258 277 299 316 305 264 244 235
63 91 105 98 98 270 285 289 294 300 342 60 91 176 231 308 22 33 61 68 46 36 45 42 46 61 268 264 276 311 335 352 1 5 5 360 355 353 351 351 352 351 347 344 341 335 325 313 307 294 288 299 301 301 301 299 297 300 304 305 304 301 300 300 296 305 14 156 194 191 192 209 225 233 231 228 228 233 239 249 266 289 305 290 253 238 226
6 63 101 104 90 289 273 283 326 355 55 85 113 163 161 93 67 59 64 75 63 48 56 53 336 284 285 289 307 339 351 351 347 350 354 354 350 346 343 343 345 345 342 340 339 335 333 331 326 308 286 284 285 286 290 288 284 283 284 283 285 286 280 268 256 253 262 275 268 186 145 241 286 275 246 230 231 238 242 249 261 272 277 265 242 229 220
7 54 69 95 92 331 309 322 4 26 74 136 219 147 114 72 70 60 45 58 65 46 32 4 323 312 321 333 342 345 345 343 338 337 338 338 336 334 333 333 334 334 330 328 326 325 327 329 331 331 321 301 281 269 271 276 278 275 272 271 272 268 261 260 263 258 253 254 250 238 248 274 296 305 292 263 255 258 258 263 267 257 247 243 231 220 214
31 58 52 92 88 14 16 66 80 77 133 186 190 111 61 19 54 67 34 14 5 28 30 346 325 328 329 328 332 333 332 331 328 326 325 325 324 324 323 322 324 324 320 315 314 314 314 317 321 326 330 323 302 279 268 269 273 273 271 270 269 266 262 256 248 240 237 238 242 249 262 272 273 278 287 286 277 268 260 257 253 243 238 232 220 211 210
83 89 67 92 100 57 54 86 115 135 144 159 131 110 80 9 350 32 38 12 341 351 19 345 327 324 320 317 317 317 314 309 308 309 310 310 311 311 311 314 318 319 315 310 308 306 305 308 309 308 313 320 317 304 291 283 275 267 261 259 262 265 267 262 248 240 238 238 243 247 248 250 252 257 270 281 283 277 262 249 241 236 232 224 215 208 209
104 72 29 57 97 95 80 93 118 122 111 101 106 100 68 1 356 11 32 23 349 351 5 350 331 311 306 309 308 307 307 305 305 307 307 309 311 311 310 312 315 316 313 309 307 304 302 304 303 300 298 299 303 307 310 307 295 277 264 260 258 257 259 263 259 252 243 236 234 233 231 234 242 250 258 267 278 286 277 254 241 236 227 216 208 205 208
107 77 339 334 108 115 103 104 116 103 75 48 87 97 72 21 60 56 48 40 3 355 354 338 319 309 309 311 308 308 313 311 311 313 312 312 312 309 307 309 310 310 307 304 303 302 302 301 300 297 293 290 289 290 293 296 301 303 298 288 276 265 262 263 258 249 239 233 229 227 226 230 237 244 249 253 260 270 269 249 233 225 216 208 203 202 206
108 151 245 276 215 164 118 92 93 75 56 35 30 98 114 118 114 108 75 51 16 343 328 312 305 308 313 315 317 321 324 320 319 320 317 314 313 310 308 308 306 304 300 297 297 296 295 295 296 294 290 287 284 283 283 284 287 292 296 299 299 296 292 284 268 252 242 236 232 228 223 221 225 233 240 246 251 256 256 245 230 217 209 207 208 210 212
70 150 294 323 307 218 60 56 50 198 139 137 343 22 65 69 55 30 9 4 342 310 295 302 322 329 327 330 334 330 326 321 317 315 313 312 311 309 308 307 305 301 296 293 293 292 291 291 292 290 288 285 281 278 278 277 276 279 282 284 286 290 293 293 283 269 260 254 242 229 220 214 216 223 230 238 245 247 245 240 232 223 218 218 221 224 222
52 264 270 323 90 257 285 326 328 302 162 105 73 46 44 35 20 13 350 343 342 347 2 14 16 359 337 335 332 323 314 310 308 307 307 306 304 303 303 302 301 298 294 292 290 289 289 291 291 287 284 282 278 272 270 270 269 268 269 270 271 273 276 280 281 277 271 262 246 231 222 217 212 211 215 223 227 224 219 219 221 225 229 234 236 232 223
205 222 217 188 151 219 263 290 313 312 19 84 79 54 14 354 353 25 27 13 9 16 24 27 21 356 330 329 327 318 309 307 304 302 301 299 298 298 299 297 295 293 291 289 287 286 287 289 290 287 284 281 277 273 269 268 268 266 265 265 265 263 262 263 265 266 269 262 243 228 219 213 206 200 196 197 203 207 210 213 217 222 229 234 238 234 224
204 224 215 191 164 213 261 285 315 330 52 88 78 6 355 355 359 26 50 54 49 37 19 11 1 343 332 329 324 312 305 305 304 302 300 297 294 293 293 292 289 288 287 286 284 284 287 289 291 290 288 284 280 277 274 272 269 266 263 262 262 261 259 258 256 255 258 253 235 216 203 196 195 193 185 179 181 190 200 207 212 217 222 225 223 220 220
141 202 205 176 161 202 270 293 331 7 50 77 54 355 22 23 23 49 72 72 57 46 9 343 340 335 328 323 316 310 305 305 304 303 300 296 294 291 290 288 286 285 284 285 285 285 286 287 288 289 289 286 283 280 277 274 272 269 264 261 259 257 256 256 254 251 247 238 222 206 195 189 188 190 188 183 176 167 168 183 195 201 204 205 206 205 208
135 136 87 50 33 7 349 348 352 350 353 11 25 33 33 27 30 56 78 68 26 8 342 319 318 321 318 313 309 309 308 306 305 303 299 295 294 292 289 288 287 286 284 284 283 283 283 284 285 286 285 284 283 281 279 276 274 269 265 260 256 253 250 248 248 246 243 236 224 212 204 198 193 192 193 192 183 170 162 162 164 168 171 177 187 194 193
122 120 85 38 347 328 325 309 279 278 299 344 49 58 37 24 17 21 43 28 0 345 328 311 306 310 311 309 307 306 306 304 303 303 300 296 295 293 292 290 289 287 284 281 279 279 281 283 284 283 282 281 281 279 276 274 270 265 261 255 252 249 246 243 241 241 240 238 228 213 203 198 195 194 192 189 184 178 174 167 156 149 150 156 165 172 172
62 21 82 130 236 254 263 267 265 283 323 35 80 71 28 6 351 342 355 9 353 336 322 315 312 308 307 310 311 308 307 308 308 305 302 299 297 297 298 296 293 288 283 278 277 278 279 280 281 280 280 281 281 278 274 270 265 260 256 251 246 243 241 238 237 236 237 236 227 213 203 197 195 193 190 185 182 179 175 167 157 147 142 141 144 148 152
7 320 343 208 213 214 223 270 311 44 36 58 94 88 8 346 345 348 356 355 342 328 317 317 315 310 309 314 315 313 314 315 312 308 305 305 306 308 309 307 300 290 281 278 280 282 283 284 283 281 282 284 283 279 274 268 259 253 250 245 240 237 234 232 231 231 232 234 232 218 206 198 193 189 184 180 178 173 167 160 154 147 142 141 141 140 141
264 329 7 280 241 135 125 181 197 158 91 13 6 329 314 334 349 338 323 330 332 321 314 316 316 316 319 320 318 319 321 318 314 313 313 314 317 322 327 331 329 319 304 298 296 294 293 293 291 289 292 296 294 286 278 268 258 252 246 240 235 232 229 226 225 224 226 229 227 214 200 194 190 185 177 172 169 166 161 156 152 147 144 144 144 142 140
296 359 7 284 108 108 129 215 189 153 151 23 16 338 315 329 332 272 286 302 302 300 312 323 325 325 325 325 325 329 329 324 322 324 326 329 337 344 348 351 350 340 325 319 316 315 316 313 310 311 318 321 313 297 281 267 257 250 242 235 229 226 224 221 219 220 220 218 212 200 189 185 181 176 169 163 161 159 156 153 150 148 147 147 147 146 145
34 355 353 321 93 121 153 201 151 146 187 302 10 272 271 260 226 227 246 269 278 286 307 327 333 330 329 331 334 336 335 334 337 342 345 352 1 3 358 351 341 330 327 332 337 340 341 338 337 340 345 344 338 324 296 273 259 248 240 231 222 217 216 214 211 214 215 206 195 189 183 178 173 168 162 159 159 157 154 151 149 149 150 152 153 152 152
121 309 300 283 237 160 184 205 171 174 212 232 228 245 256 247 225 225 242 267 283 290 300 316 329 334 335 337 341 343 345 349 356 360 2 6 10 8 1 354 348 343 348 358 5 7 4 358 356 0 5 5 7 11 360 303 266 248 237 223 209 203 205 205 203 204 202 194 186 183 177 171 166 163 161 159 158 155 151 149 151 154 156 156 156 155 156
180 204 215 212 191 173 187 197 185 194 230 250 251 256 263 254 236 233 250 277 290 292 297 312 328 336 339 344 350 352 355 0 4 4 6 10 9 4 2 5 10 14 16 20 22 21 17 12 12 17 23 26 28 34 42 52 87 161 183 183 179 178 182 186 187 184 179 175 171 167 163 160 158 159 158 155 151 149 149 152 155 156 154 152 153 157 159
200 200 203 208 212 210 203 196 191 205 224 245 262 269 276 270 248 236 250 285 304 308 311 324 337 341 344 353 360 358 0 7 8 6 9 10 5 1 7 19 26 27 28 30 30 26 22 23 26 29 35 40 42 44 51 64 83 104 121 132 138 143 151 158 160 157 155 154 151 148 149 149 149 149 148 147 147 150 153 155 155 153 150 149 154 159 162
189 186 191 204 213 218 213 203 211 233 242 253 264 269 281 291 267 243 260 299 329 339 340 347 355 353 353 3 9 5 6 12 11 9 10 10 6 8 21 31 31 28 26 26 25 25 26 31 36 40 43 48 51 52 57 66 77 88 98 106 110 113 119 125 128 129 132 135 133 131 133 136 138 140 143 146 149 152 153 152 151 152 155 159 163 166 170
187 188 186 187 187 193 216 233 245 265 278 283 275 261 289 17 46 44 1 5 20 22 12 12 13 7 5 16 23 18 18 21 19 13 12 12 14 23 33 35 31 26 21 16 16 21 28 36 44 49 52 53 56 59 63 68 75 81 87 92 97 100 102 105 108 111 115 119 121 123 128 134 139 143 147 150 150 148 146 148 153 160 166 170 173 174 174
192 188 181 184 192 208 236 250 251 264 287 297 284 143 95 68 72 65 48 41 45 39 27 27 30 28 29 39 38 28 25 27 26 20 17 18 25 32 37 34 27 19 11 8 14 25 36 45 54 59 60 60 61 64 68 72 76 80 83 86 90 94 97 101 104 109 114 120 125 129 133 136 138 141 144 146 144 143 147 155 160 164 166 167 167 165 162
192 183 180 191 211 226 241 253 253 254 271 281 219 133 103 85 84 74 59 50 50 49 45 43 43 41 41 51 53 38 30 31 30 24 20 23 33 41 42 35 27 20 18 21 29 38 47 55 62 66 67 69 71 72 75 78 80 82 86 89 92 95 100 104 107 109 114 119 122 123 124 126 129 133 137 141 144 149 154 157 156 156 156 156 157 156 154
194 191 191 203 219 230 241 253 253 254 264 265 222 159 121 103 96 84 72 63 58 59 63 63 58 49 45 53 62 52 38 35 34 31 27 29 36 43 42 33 25 26 33 40 45 49 55 62 67 69 71 75 79 80 82 85 89 91 94 96 98 100 103 106 107 108 109 111 113 116 119 124 129 133 138 141 143 145 146 146 146 147 147 147 148 148 146
199 199 201 211 223 233 243 252 256 261 266 249 195 172 143 113 108 96 85 78 71 70 75 79 75 65 58 61 68 66 51 41 39 40 40 37 37 40 38 26 21 27 39 48 52 55 59 64 68 71 74 78 84 87 89 90 93 96 99 101 103 104 107 109 110 111 113 115 117 119 123 126 127 128 130 132 132 133 135 136 137 138 139 140 141 142 141
201 202 205 215 228 237 244 253 261 263 253 216 187 182 165 127 120 109 99 92 83 77 81 89 90 82 75 74 74 72 64 53 48 48 50 47 43 42 37 26 26 35 46 52 55 58 61 63 67 72 77 81 86 91 95 97 98 100 103 105 106 108 110 111 112 113 116 117 117 118 120 122 121 120 121 121 122 123 126 128 129 131 134 136 138 138 138
199 201 205 213 225 237 247 259 272 264 235 205 192 191 176 146 129 116 104 96 87 82 87 98 103 94 84 81 78 71 65 61 57 56 58 57 54 51 46 39 39 46 52 54 55 56 59 62 68 74 81 86 89 92 95 96 97 100 104 106 107 109 110 111 113 115 116 116 114 114 116 117 117 117 117 117 117 119 122 124 126 128 131 133 134 135 135
199 201 208 214 220 230 243 259 271 256 215 198 196 194 178 156 137 122 108 99 95 91 92 102 112 107 94 87 84 76 68 64 61 60 61 60 56 53 50 49 51 54 55 56 58 58 58 62 68 75 82 89 93 94 94 94 94 97 100 102 104 106 107 107 108 110 110 110 109 110 111 113 114 115 116 116 117 119 121 121 123 126 129 131 133 134 136
200 206 215 220 221 224 232 245 260 250 215 198 193 191 183 167 146 131 118 109 106 104 100 106 117 118 107 97 93 87 79 72 67 65 64 61 53 48 50 54 58 61 60 60 61 62 62 64 71 77 81 87 91 93 93 93 94 95 97 98 100 102 102 103 104 105 105 106 107 107 109 110 111 112 114 115 116 117 118 118 120 123 125 128 130 133 138
205 211 219 223 225 226 229 239 254 255 231 204 190 187 187 179 161 148 146 136 124 118 111 109 116 123 121 113 108 101 93 84 76 73 72 72 69 65 64 65 66 67 67 65 64 64 65 68 73 78 81 86 89 90 91 92 93 95 96 97 98 98 99 100 101 101 101 102 103 104 106 108 108 108 109 110 109 109 111 113 113 113 117 122 125 129 135
205 211 218 224 229 231 233 239 250 253 227 195 186 188 190 186 176 167 167 162 144 131 121 112 110 119 125 122 117 115 110 101 91 85 82 80 77 76 76 76 74 73 72 71 69 67 67 69 74 79 82 86 89 89 89 90 91 93 94 95 97 98 99 99 98 98 97 98 99 101 103 104 105 106 105 103 100 99 100 99 97 95 95 98 102 106 111
201 207 214 223 231 235 234 235 239 238 214 196 195 195 193 190 186 182 180 179 168 151 138 123 112 112 115 112 112 118 120 113 105 100 95 89 83 78 77 79 79 78 76 75 74 72 71 71 73 77 82 86 89 89 89 90 90 92 93 95 96 98 99 100 99 98 97 97 99 101 104 106 107 108 107 104 103 102 101 102 103 102 98 95 93 95 98
211 214 218 223 231 237 233 224 223 227 222 212 205 199 194 193 192 189 185 185 180 169 158 149 134 120 116 113 109 108 109 112 115 114 109 101 94 86 80 80 82 85 83 80 77 75 72 72 73 76 81 85 88 89 89 89 89 91 93 95 95 96 98 100 100 99 98 97 96 98 102 107 110 112 112 112 112 111 108 105 106 105 101 96 92 88 84
216 216 215 217 224 232 232 222 219 225 227 221 213 202 195 193 194 193 190 188 186 181 174 167 155 142 134 129 124 115 107 108 115 116 111 107 107 102 91 83 83 87 91 89 85 79 75 72 72 75 80 85 89 91 92 90 89 91 94 97 98 97 97 97 99 99 99 98 96 96 99 101 103 103 102 102 105 107 104 99 96 96 96 93 88 83 81
214 216 218 220 223 229 234 236 237 237 234 229 222 209 198 196 199 200 195 190 187 185 181 177 170 163 156 149 145 142 133 123 122 123 121 118 116 110 99 88 84 87 91 94 92 88 82 76 73 75 80 85 89 92 93 94 94 95 97 100 100 99 98 99 101 101 101 101 101 102 103 103 99 93 88 88 93 97 95 90 86 88 90 88 84 81 81
221 229 235 234 230 230 234 240 243 242 236 231 225 212 202 200 203 202 196 193 191 188 185 182 181 180 177 169 161 161 163 157 148 143 140 136 128 117 105 95 91 89 89 91 93 93 91 86 81 80 84 88 90 91 93 95 97 98 99 101 103 104 104 105 105 103 100 99 101 105 109 109 102 92 85 85 90 93 90 85 81 82 84 86 85 85 85
Height
765 765 764 763 765 769 771 774 776 774 771 771 771 773 775 776 779 789 794 791 793 799 797 792 791 789 787 786 783 778 775 774 774 774 774 775 776 776 776 777 778 778 779 779 778 778 777 777 778 778 779 780 780 779 779 778 777 778 781 782 782 784 788 789 789 790 792 793 794 797 799 803 809 812 811 812 815 816 817 818 818 816 818 820 820 820 819
767 765 763 765 767 771 775 782 784 778 774 776 776 777 780 780 784 793 795 793 798 803 801 797 794 792 790 787 784 782 781 781 779 776 777 778 779 780 780 780 781 781 781 781 780 779 779 780 780 780 781 781 781 781 781 780 779 779 780 781 780 782 786 790 790 790 792 793 795 798 800 802 807 809 809 808 809 811 812 813 813 813 814 816 817 818 818
772 767 765 768 772 774 778 786 788 781 779 783 786 788 788 787 794 800 795 795 801 803 803 801 798 794 792 790 790 789 787 787 784 781 781 782 782 783 783 783 782 781 782 784 784 783 783 783 783 782 783 783 783 783 783 783 782 781 781 781 781 782 784 787 789 789 791 792 794 798 801 802 804 806 807 807 808 808 808 809 810 811 812 814 814 815 816
776 771 769 772 773 773 779 788 792 788 786 793 800 804 802 796 797 796 793 800 809 808 805 804 801 798 797 798 799 797 794 792 790 789 789 789 789 788 787 788 786 785 785 786 787 788 787 787 786 785 785 785 785 785 786 786 786 785 784 783 783 784 784 786 787 788 789 792 795 798 799 801 803 804 805 806 806 807 807 808 810 810 811 812 813 814 814
778 775 772 772 773 777 786 794 797 795 796 801 807 812 811 806 801 799 801 809 814 811 809 807 805 804 804 804 804 802 800 798 796 796 796 796 795 794 793 794 792 792 792 791 790 790 790 789 789 788 788 787 788 788 788 788 788 788 787 786 785 785 785 787 788 789 790 793 795 797 799 801 802 803 804 804 805 806 806 807 808 809 810 811 811 812 813
779 778 773 773 781 790 797 800 798 798 801 806 812 818 818 813 809 809 812 814 814 813 812 809 809 809 808 808 807 805 804 803 801 800 800 800 800 799 798 798 797 796 796 795 794 792 791 791 791 791 791 791 791 791 790 790 790 789 789 789 788 788 788 789 789 790 792 793 795 797 798 800 801 802 803 804 805 805 806 807 807 808 809 810 811 812 813
779 781 778 782 791 796 800 802 801 802 805 807 813 820 821 818 816 816 816 816 814 813 814 811 810 811 810 809 807 806 806 806 804 803 802 802 803 803 802 800 799 798 798 798 796 794 793 793 793 793 794 794 794 794 792 792 791 791 791 790 790 790 790 790 791 792 793 794 795 796 797 799 800 801 802 803 804 805 806 807 808 808 809 810 811 812 812
781 784 782 787 794 797 801 805 802 802 804 803 807 817 822 821 820 819 818 817 815 813 813 813 811 810 810 808 809 810 809 808 807 807 805 804 804 805 804 802 801 800 801 802 799 796 795 795 794 795 796 796 796 796 794 794 793 792 792 792 791 791 791 791 792 793 793 794 795 796 797 798 799 800 801 803 803 804 805 806 807 808 809 810 810 811 812
780 783 785 790 797 800 805 808 805 804 805 803 804 816 825 823 820 820 819 818 817 814 812 812 811 809 808 809 812 813 811 810 810 809 808 807 806 806 804 804 803 802 803 803 801 799 797 796 797 798 798 798 797 797 796 796 795 794 794 792 792 791 792 792 792 793 794 794 795 796 797 798 799 800 801 802 803 804 805 806 807 807 808 809 810 810 811
777 781 786 791 795 800 807 811 806 803 806 804 801 812 824 823 820 821 819 818 819 817 814 814 811 807 808 815 818 815 813 813 811 810 810 809 808 807 806 805 804 804 803 803 802 801 800 799 800 800 799 799 798 797 797 797 797 797 796 794 793 792 792 792 792 793 794 794 795 796 797 798 799 800 801 802 803 804 804 805 806 807 807 808 809 809 809
776 777 780 786 794 804 813 813 805 800 804 802 799 810 825 825 820 820 819 819 821 820 818 817 814 813 818 823 821 816 814 814 812 811 811 809 808 808 807 806 806 805 804 804 803 803 802 802 802 802 801 800 798 797 797 798 798 798 798 797 795 793 793 792 792 793 793 794 795 795 796 798 799 800 801 802 803 803 804 804 805 806 807 808 808 808 809
775 775 782 796 808 814 814 809 804 802 801 796 796 811 826 826 823 823 822 823 824 823 822 821 819 822 826 825 820 817 816 814 813 812 811 810 809 809 808 808 807 806 805 805 804 805 804 804 804 804 803 803 802 800 798 798 798 798 798 798 796 795 794 794 793 793 794 794 795 795 796 797 798 799 800 801 802 803 803 804 804 805 806 807 808 808 809
779 780 794 813 819 814 809 807 806 802 797 796 805 819 827 826 826 826 824 824 826 825 824 824 824 825 825 823 821 819 816 814 813 813 812 811 810 809 809 808 807 806 806 805 805 805 805 805 805 805 805 805 804 802 801 799 798 798 798 797 796 795 795 794 794 794 794 795 795 795 796 797 797 798 799 800 801 802 802 803 803 804 805 807 808 808 808
790 790 803 819 822 814 808 808 805 800 800 809 820 826 826 825 825 824 824 824 825 825 824 825 825 824 822 821 820 818 816 814 813 811 810 810 810 809 809 808 807 806 805 805 804 804 804 804 804 804 804 803 802 802 802 801 799 798 797 797 796 795 795 794 794 794 794 795 795 795 796 796 796 797 798 799 800 801 801 802 802 803 804 806 807 807 808
802 803 811 821 824 818 809 807 810 811 815 822 825 824 824 824 823 823 823 823 823 823 823 823 823 821 820 819 818 817 815 814 812 810 809 808 807 807 807 806 807 806 805 804 803 803 802 802 801 801 801 800 800 800 799 799 799 798 797 796 795 795 794 793 793 793 794 794 794 795 795 795 796 797 797 798 800 800 800 801 801 802 803 804 806 806 807
811 818 823 823 824 820 813 814 820 822 822 823 822 822 824 824 822 822 822 822 822 822 822 821 821 820 819 818 817 816 814 813 813 811 809 808 807 806 805 804 804 804 803 802 801 800 800 800 800 799 798 797 797 797 796 796 796 796 795 795 794 792 792 792 792 792 792 793 793 794 794 794 795 796 797 798 799 800 800 800 800 801 802 803 804 805 806
819 825 826 822 822 822 819 818 821 823 822 822 821 822 823 822 821 821 821 821 821 821 821 821 820 819 818 817 816 815 814 813 812 810 809 808 807 806 805 804 803 802 801 800 798 798 797 797 798 797 797 796 795 794 793 793 793 792 792 792 791 790 789 789 789 789 789 790 791 791 792 792 793 794 795 796 797 798 799 799 799 800 800 801 802 804 805
819 822 823 822 822 823 821 820 821 821 821 821 821 821 822 821 821 821 821 821 821 821 820 820 820 819 818 817 815 814 813 812 810 809 808 807 806 805 804 803 802 800 798 796 795 794 793 793 794 794 794 793 792 792 791 790 789 789 789 788 787 787 786 785 785 786 786 786 787 788 789 790 791 792 794 795 796 797 797 798 798 799 799 800 801 802 803
815 822 825 823 821 822 822 821 821 821 820 821 821 821 821 821 820 821 821 821 820 820 820 819 819 818 817 816 814 813 812 811 809 808 807 805 804 803 802 801 800 799 797 795 793 791 790 789 790 790 790 790 789 788 788 787 787 786 786 785 784 783 782 782 782 782 783 783 784 785 787 788 789 791 792 793 794 795 796 796 797 797 798 799 800 801 802
816 824 825 822 821 822 822 820 821 821 820 821 821 820 820 820 820 820 820 820 820 819 819 819 818 817 816 815 814 813 811 810 809 807 806 804 803 801 800 799 798 797 795 793 791 789 787 787 787 787 786 786 785 785 784 784 784 783 783 782 781 780 780 780 780 780 781 781 782 783 784 785 787 788 789 791 792 793 793 794 794 795 796 797 798 800 801
821 825 823 820 819 820 820 820 820 820 820 820 820 820 820 820 820 820 819 819 819 818 818 817 816 816 815 814 813 813 811 810 808 807 805 803 801 800 798 797 796 795 793 791 790 787 785 784 784 783 782 781 781 781 781 781 781 780 780 779 779 779 778 778 778 778 779 779 780 780 781 782 784 785 787 788 789 790 790 791 792 793 794 795 797 798 799
822 824 822 820 819 818 818 819 819 819 819 819 819 820 820 819 819 819 818 818 818 817 817 816 816 816 815 814 813 812 810 809 807 805 803 801 799 797 796 794 793 792 790 789 787 785 783 781 781 780 778 777 777 777 777 777 777 777 776 776 776 776 776 777 777 777 777 777 777 778 779 780 781 783 784 786 787 788 788 789 790 792 793 794 795 796 797
820 822 821 820 820 820 819 818 818 818 818 817 818 818 818 818 818 817 817 817 817 816 816 816 816 815 814 813 812 810 808 807 805 803 801 799 797 795 793 792 790 788 786 785 784 781 779 778 777 776 774 773 773 773 773 773 773 773 773 773 772 772 773 774 775 776 776 776 776 775 776 778 779 780 782 784 785 786 787 788 789 791 792 793 795 796 797
818 819 819 819 820 820 819 819 818 817 817 816 817 817 816 817 816 816 816 816 816 816 816 815 815 815 813 812 811 809 806 804 802 800 799 796 794 792 790 788 786 784 782 781 779 777 776 775 774 772 771 769 769 769 769 769 769 769 769 769 769 769 770 771 772 774 774 774 773 773 774 775 777 778 780 782 784 785 786 787 788 790 791 792 794 795 797
817 818 819 819 819 819 819 818 817 817 816 816 816 816 816 816 816 815 815 816 815 815 815 814 814 813 812 811 809 807 805 802 800 798 796 793 791 788 786 784 782 780 778 777 775 774 773 771 770 769 767 765 765 765 765 765 765 765 765 765 766 766 767 768 769 770 771 771 771 771 772 773 775 776 778 780 782 784 785 787 788 789 790 792 793 795 797
817 817 817 818 818 818 818 818 817 817 816 816 816 816 816 815 815 815 815 815 815 814 814 813 812 811 810 809 808 806 803 800 798 796 793 790 788 785 782 780 779 777 775 774 772 770 769 768 766 764 762 760 760 760 760 760 760 760 761 761 762 762 763 764 765 766 767 768 768 769 770 771 773 774 776 778 779 781 784 786 787 789 790 791 793 794 796
816 817 817 818 819 818 818 818 817 817 816 816 816 816 816 815 815 815 814 814 814 814 813 812 811 810 809 807 805 803 800 797 795 793 790 787 785 782 779 777 775 773 771 769 768 767 765 763 762 760 757 755 755 755 754 754 754 754 754 756 756 757 758 760 761 762 763 764 765 766 767 769 770 772 774 776 778 779 781 783 785 788 789 791 793 794 796
817 817 817 818 818 818 817 817 817 816 816 816 816 816 816 816 815 815 815 814 814 814 813 812 811 809 807 805 803 800 798 795 792 790 787 784 782 779 776 774 772 769 768 766 764 763 761 759 757 755 752 750 750 749 748 748 747 747 748 749 750 752 753 755 756 758 760 761 762 763 765 766 768 770 771 774 776 778 780 782 784 786 789 791 793 795 797
816 816 816 816 816 816 816 816 816 817 817 817 816 816 816 816 816 816 816 815 814 814 812 811 809 807 805 803 801 798 795 793 790 787 784 782 779 777 774 772 769 766 765 763 762 760 758 757 754 751 748 746 744 743 742 741 741 740 741 742 744 745 747 749 752 754 756 758 759 761 762 764 766 768 770 772 774 776 779 782 783 785 788 790 792 795 797
816 815 816 815 815 815 816 816 816 817 817 816 816 816 816 816 816 816 816 815 814 813 812 810 808 806 804 802 799 796 794 791 788 785 782 780 777 775 773 770 767 765 763 762 761 759 757 754 751 748 745 741 739 738 736 735 734 734 734 736 737 739 741 744 747 749 752 754 756 758 760 762 764 766 768 771 773 775 778 781 783 785 787 789 791 794 796
814 814 815 815 815 815 816 816 816 816 816 816 816 816 815 815 815 815 815 814 813 812 810 809 807 805 802 800 797 795 793 790 786 784 781 779 776 774 771 769 767 766 764 762 760 758 755 752 749 745 741 738 735 733 731 729 728 728 728 729 731 733 736 740 743 745 748 750 753 755 757 759 762 764 766 769 773 775 778 780 783 785 787 790 792 794 795
814 814 814 815 815 815 815 815 816 816 816 816 816 815 815 815 815 814 813 812 811 810 809 808 806 804 801 799 796 794 792 788 786 783 781 778 776 773 771 770 768 766 764 762 760 757 754 751 747 743 739 736 732 729 726 724 723 722 722 723 725 728 731 735 739 742 745 747 749 752 754 757 760 763 765 768 772 775 777 780 783 785 788 790 792 793 795
814 814 815 815 815 815 816 815 816 816 815 815 814 814 814 813 813 813 812 811 810 809 808 807 805 803 801 798 796 794 791 788 785 783 780 778 776 774 772 771 769 767 765 762 759 756 754 750 746 742 738 735 731 727 723 720 718 717 717 719 721 725 729 733 737 740 743 745 746 748 751 754 757 761 765 768 771 774 777 780 783 786 788 790 792 794 796
812 813 813 813 813 814 815 815 815 815 814 814 813 812 812 812 811 811 810 809 808 808 807 806 804 802 800 798 796 794 791 788 785 783 781 779 778 776 774 772 769 767 765 762 759 756 753 750 747 743 739 735 731 726 722 719 716 716 717 719 721 724 728 732 736 739 741 744 747 749 751 755 758 761 765 769 771 774 777 781 784 787 788 790 792 794 796
810 811 811 812 812 813 813 813 814 813 813 813 812 811 811 810 810 810 809 808 807 807 806 805 804 802 800 798 796 794 792 789 787 785 783 782 780 778 775 773 770 767 764 762 759 757 755 752 748 745 741 737 733 729 725 721 719 719 720 722 724 727 730 734 737 739 742 745 749 751 754 757 760 763 766 769 772 776 779 782 785 786 788 790 793 795 797
809 810 811 811 812 812 812 812 812 812 812 811 811 810 810 809 809 809 809 808 807 806 805 804 804 802 800 799 797 795 793 791 789 787 785 783 781 779 776 774 771 768 766 763 761 759 757 754 751 748 744 740 737 734 731 727 725 724 725 726 728 731 734 737 740 742 745 748 751 754 756 759 762 765 768 772 775 778 780 783 785 786 788 791 793 795 796
809 810 811 811 811 812 812 812 811 811 811 810 810 809 809 809 808 808 808 808 807 806 805 804 803 802 801 800 798 796 794 792 790 788 787 785 783 781 778 775 772 770 769 767 765 762 760 757 755 752 748 745 742 740 737 735 733 732 732 733 734 737 739 741 744 747 749 752 754 757 761 764 766 769 772 774 777 779 781 783 785 787 789 791 793 795 796
809 809 810 810 811 811 811 811 811 811 810 810 809 809 809 809 808 808 808 807 807 806 805 804 804 803 801 800 799 797 795 793 791 790 788 786 784 782 779 777 776 775 773 772 769 766 763 761 758 755 753 750 748 746 744 742 740 739 739 740 742 743 745 747 750 752 754 757 760 762 765 767 769 771 774 776 778 780 782 784 786 788 790 791 793 795 796
808 809 810 810 810 811 810 810 810 810 809 809 809 809 809 809 808 808 808 807 807 806 805 805 804 802 801 800 799 798 797 795 793 792 790 788 786 784 782 780 780 779 777 775 772 769 766 764 762 759 757 756 754 752 751 750 748 747 747 747 748 749 751 753 755 756 759 761 763 765 767 769 771 773 775 777 779 781 783 785 787 788 790 792 794 795 797
808 808 809 809 810 810 810 810 809 809 809 809 809 808 808 808 808 808 808 807 807 806 805 805 804 803 802 801 800 800 799 797 795 794 792 789 787 785 783 782 782 780 778 776 773 771 769 767 765 763 762 760 759 758 757 756 754 754 754 754 754 755 757 758 759 761 762 764 766 768 769 771 773 775 777 779 780 782 784 786 788 789 791 793 795 796 798
807 807 808 808 809 809 809 809 809 808 808 808 808 808 808 808 808 808 808 807 807 806 806 805 804 803 803 802 801 801 800 799 797 795 793 791 788 786 786 786 785 783 780 778 776 774 772 770 768 767 766 765 763 763 762 761 760 759 759 760 760 761 762 763 764 765 766 768 770 771 773 774 776 777 779 780 782 784 785 787 789 791 793 794 796 797 799
806 806 807 807 808 807 807 808 808 807 807 807 807 807 808 807 808 808 808 807 807 806 806 805 805 804 803 803 802 801 801 800 799 797 795 793 791 790 790 790 788 786 783 781 779 777 775 773 772 771 770 768 767 766 765 765 764 764 764 765 765 765 766 767 768 769 770 771 773 774 775 777 778 780 781 783 784 786 787 789 791 792 794 796 797 798 800
804 805 805 806 806 806 806 807 807 807 807 807 807 807 807 807 807 808 807 807 807 806 806 806 805 805 804 804 803 802 802 801 800 798 797 795 794 794 793 793 791 789 786 784 782 780 779 777 776 775 774 772 771 770 769 768 768 768 768 769 769 769 770 771 772 773 774 775 776 777 778 779 781 782 783 785 787 788 790 791 793 794 796 797 798 799 800
802 803 803 804 805 805 805 805 805 806 806 806 806 806 807 807 807 807 807 807 807 806 806 806 805 805 805 805 804 803 803 802 801 800 798 797 796 796 795 795 793 791 789 787 785 784 782 781 780 778 777 776 774 774 773 772 772 772 772 772 773 773 774 775 776 776 777 778 780 781 782 783 784 785 786 788 789 791 792 794 795 796 797 798 799 800 801
800 801 801 802 803 803 804 804 804 804 805 805 805 805 806 806 807 807 807 807 807 807 806 806 805 805 805 805 805 804 804 803 802 801 799 798 798 798 798 797 795 793 792 790 788 787 786 785 784 782 780 779 778 777 776 776 776 776 776 776 777 777 778 779 779 780 781 782 783 784 785 786 788 789 790 791 793 794 795 796 797 798 799 799 800 801 801
798 799 799 800 801 801 802 802 803 803 804 804 804 805 805 806 806 806 806 807 807 806 806 806 806 805 805 805 805 805 804 803 803 802 801 800 800 800 799 798 797 795 794 793 791 790 789 788 787 786 784 783 781 780 780 779 779 779 779 780 780 781 782 782 783 784 785 786 787 788 789 790 791 792 793 794 795 796 797 798 799 799 800 800 801 801 802
796 797 798 799 799 799 800 801 801 802 802 803 803 804 804 805 805 806 806 806 807 807 806 806 806 805 806 805 805 805 804 803 803 803 803 802 801 801 800 799 798 797 796 795 794 793 792 791 790 789 788 786 785 784 784 783 783 783 783 783 784 784 785 786 787 788 789 789 790 791 792 793 794 795 796 796 797 798 799 799 800 800 801 801 801 802 802
794 795 796 796 797 797 798 799 800 800 800 801 801 802 803 804 804 805 805 806 807 807 807 806 806 806 806 806 805 805 805 803 803 804 804 803 803 802 801 801 800 799 798 797 796 796 795 794 793 792 791 790 789 788 788 787 787 787 787 788 788 788 789 789 790 791 792 792 793 794 795 796 796 797 798 799 799 800 800 801 801 802 802 802 803 803 803
792 793 794 794 795 795 796 797 798 798 798 798 799 800 801 802 803 804 804 805 806 806 807 807 806 806 806 806 806 806 806 805 804 804 804 804 804 803 803 802 801 800 800 799 798 798 798 797 796 795 794 793 792 792 792 791 791 791 791 791 792 792 792 793 793 794 795 795 796 797 797 798 799 800 800 801 801 802 802 802 803 803 803 803 803 803 803
789 790 791 792 792 793 794 794 795 796 796 796 797 798 799 800 801 802 803 804 805 806 806 807 807 806 806 806 806 806 806 806 805 805 805 804 804 804 803 803 802 802 801 801 800 800 800 799 798 798 797 796 796 795 795 795 794 794 795 795 795 795 796 796 797 797 798 798 799 799 800 801 801 802 802 803 803 803 804 804 804 804 805 805 804 804 805
787 788 789 790 790 791 791 792 793 793 794 794 794 795 797 798 799 799 800 802 804 805 805 806 807 806 806 806 806 806 806 806 806 806 806 805 805 805 804 804 803 803 802 802 802 802 802 801 801 800 800 799 799 798 798 798 797 797 797 798 798 798 799 799 799 800 800 800 801 801 802 803 803 804 804 804 805 805 806 806 806 806 806 806 806 806 806
785 786 787 788 788 789 789 790 790 791 792 792 792 793 794 795 796 797 798 799 801 802 803 804 805 805 806 806 806 806 806 806 806 806 806 806 806 805 805 805 804 804 804 803 803 803 803 803 803 803 802 802 801 801 801 800 800 800 800 800 800 801 801 802 802 802 802 803 803 803 804 805 805 806 806 806 807 807 807 807 807 807 807 807 807 807 807